sat.trackr.live / text

‹ back to catalog

ONEWEB-0211

NORAD 48767 · 2021-045A

PAYLOAD ACTIVE UNKNOWN

§ Identity

Operator
Country
UK
Launch date
2021-05-28
Launch site
VOSTO
Launch vehicle
Mass (kg)
RCS (m²)

Purposes: comms

External: N2YO · Heavens-Above · Gunter

§ Orbital elements

Epoch: 2026-09-20T05:10:40.703232Z

Period
109.41 min
Inclination
87.8987°
Eccentricity
0.0001583
Mean motion
13.16197909 rev/d
Perigee alt
1,198.1 km
Apogee alt
1,200.5 km
Semi-major
7,577.4 km
B*
-2.4115e-5
RAAN
240.1133°
Arg perigee
64.6498°
Mean anomaly
295.4796°
Rev number
25,694

§ Raw data

ONEWEB-02111 48767U 21045A   26263.21574888  .00000004  00000+0 -24115-4 0  99972 48767  87.8987 240.1133 0001583  64.6498 295.4796 13.16197909256943

JSON: /api/v1/satellites/48767 · /tle

For live sub-satellite position, see the globe view (requires WebGL).

§ Visibility from observer

Set your observer location to see the next 7 days of passes ≥ 10°. The values pass through the URL so the page stays shareable.

No JS? Fill the form by hand. The geolocation button needs JavaScript.